Location: Newark
(27.9675°N, 86.8869°E)
Time: 16:53:04
(UTC+00:00)

SR - Pass Details

Date: 23 October 2019
Orbit: 573 x 882 km, 66.7° (Epoch: 21 November)

Event Time Altitude Azimuth Distance (km) Brightness Sun altitude
Rises 15:48:09 0° 237° (WSW) 2,982 - -55.7°
Reaches altitude 10° 15:50:49 10° 252° (WSW) 2,127 - -56.2°
Maximum altitude 15:54:35 22° 303° (WNW) 1,538 - -57.0°
Drops below altitude 10° 15:58:37 10° 354° (N) 2,295 - -57.8°
Sets 16:01:38 0° 9° (N) 3,285 - -58.4°
